sat.trackr.live / text

‹ back to catalog

EUTELSAT 7 WEST A

NORAD 37816 · 2011-051A

PAYLOAD ACTIVE UNKNOWN

§ Identity

Operator
Country
EUTE
Launch date
2011-09-24
Launch site
SEAL
Launch vehicle
Mass (kg)
RCS (m²)
15.85

Purposes: comms

External: N2YO · Heavens-Above · Gunter

§ Orbital elements

Epoch: 2026-09-10T01:59:40.930368Z

Period
1,436.10 min
Inclination
0.0647°
Eccentricity
0.0005969
Mean motion
1.00271374 rev/d
Perigee alt
35,761.5 km
Apogee alt
35,811.9 km
Semi-major
42,164.8 km
B*
0.0000e+0
RAAN
343.0222°
Arg perigee
189.8390°
Mean anomaly
198.8645°
Rev number
5,472

§ Raw data

EUTELSAT 7 WEST A1 37816U 11051A   26253.08311262 -.00000081  00000+0  00000+0 0  99922 37816   0.0647 343.0222 0005969 189.8390 198.8645  1.00271374 54721

JSON: /api/v1/satellites/37816 · /tle

For live sub-satellite position, see the globe view (requires WebGL).

§ Visibility from observer

Set your observer location to see the next 7 days of passes ≥ 10°. The values pass through the URL so the page stays shareable.

No JS? Fill the form by hand. The geolocation button needs JavaScript.